OneWeb SL0653

operational
NORAD ID: 55815 Int'l Des: 2023-029 Owner: ONEWEBN Country: UK Constellation: oneweb
LEOCIRCULARPOLARONEWEB_TYPE

Über OneWeb SL0653

Beschreibung wird geladen...

Live-Position

3D-Globus wird geladen...

Nächste Überflüge

Höhenverlauf

Altitude vs Time

uPlot chart will show altitude changes over time

Zweizeiliger Elementsatz

1 55815U 23029V 26034.49078710 -.00000134 00000-0 -39512-3 0 9994
2 55815 87.9025 316.3650 0001792 71.7076 288.4249 13.14502835141834
Epoch: 3. Feb. 2026 • Age: 7 hours

Aktueller Status

Höhe 1235.6 km
Geschwindigkeit 7.24 km/s
Subsatellitenpunkt -82.41°S, 99.37°E
Startdatum 9. März 2023
Alter 2.9 years
Typ internet

Technische Details

Klassifizierung Payload
Masse 148.00 kg
Trockenmasse 140.00 kg
Gesamtmasse 148.00 kg
Länge 1.30 m
Durchmesser 1.00 m
Spannweite 5.00 m
Form Trapezoid+2 pan
Hersteller ONEWUS
Bus-Typ ARROW
Phasenstatus In Orbit
Besitzer/Staat ONEWEBN/UK

Große Konstellationen

Loading constellations...